Regional Weather Roundup
Issued by NWS

Home | Current Version | Previous Version | Text Only | Print | Product List | Glossary Off
Versions: 1 2 3 4 5 6 7 8 9 10 11 12 13 14 15 16 17 18 19 20 21 22 23 24 25 26 27

000
ASUS45 KBOU 250307
RWRCO

WEATHER ROUNDUP FOR COLORADO
NATIONAL WEATHER SERVICE DENVER/BOULDER CO
900 PM MDT WED MAY 24 2017

NOTE: "FAIR" INDICATES FEW OR NO CLOUDS BELOW 12000 FEET WITH NO
SIGNIFICANT WEATHER AND/OR OBSTRUCTIONS TO VISIBILITY.

COZ001>005-013-030-031-250400-
...NORTHWEST COLORADO...

CITY           SKY/WX    TMP DP  RH WIND       PRES   REMARKS
CRAIG          FAIR      58  37  45 CALM      29.65F
HAYDEN         FAIR      63  32  31 S6        29.68S
MEEKER         FAIR      59  34  39 NE5       29.67S
RABBIT EARS PA MOCLDY    45  28  53 W7        29.96S
STEAMBOAT SPGS FAIR      62  35  36 NW3       29.71F
WALDEN           N/A     55  32  41 SW14G20   29.80R
$$

COZ006>008-011-250400-
...WEST CENTRAL VALLEYS...

CITY           SKY/WX    TMP DP  RH WIND       PRES   REMARKS
GRAND JUNCTION FAIR      76  32  20 CALM      29.59S
MONTROSE       FAIR      75  26  16 SW9       29.71R
EAGLE          FAIR      68  29  23 VRB3      29.73F
RIFLE          FAIR      76  25  15 SW12      29.63R
DELTA          FAIR      82  24  11 SW14G35   29.64S
NUCLA          FAIR      75  19  12 SW14G20   29.74F
$$

COZ017>023-064>068-250400-
...SOUTHWEST COLORADO...

CITY           SKY/WX    TMP DP  RH WIND       PRES   REMARKS
DURANGO        FAIR      68  21  16 W6        29.82S
CORTEZ         FAIR      66  30  26 S3        29.76S
PAGOSA SPRINGS FAIR      64  21  19 W6        29.90S
TELLURIDE      MOCLDY    62  19  18 SW9       29.99S
WOLF CREEK PAS FAIR      43  21  42 SW13G20   30.22S
$$

COZ009-010-012-014-032>034-037-058>063-250400-
...CENTRAL COLORADO...

CITY           SKY/WX    TMP DP  RH WIND       PRES   REMARKS
ASPEN          FAIR      60  33  36 VRB5      29.81S
BUENA VISTA    FAIR      58  29  33 SW8       29.85S
COPPER MTN     FAIR      46  19  34 W24       30.09S
BERTHOUD PASS  FAIR      37  28  70 W24G36    30.10F
COTTONWOOD PAS FAIR      59  19  21 W10G17    29.98S
GUNNISON       FAIR      63  32  31 N8        29.85R
KREMMLING      FAIR      64  28  25 W3        29.78S
LEADVILLE      MOCLDY    49  23  36 S7        29.95F
MONARCH PASS   MOCLDY    45  27  49 W21G29    30.22S
SALIDA         FAIR      60  29  30 W7        29.89F
SUNLIGHT       FAIR      45  25  45 SW15G32   30.03R
WILKERSON PASS FAIR      46  21  36 SW10G18   30.08S
$$

COZ069>075-250400-
...SAN LUIS VALLEY/SANGRE DE CRISTO MOUNTAINS...

CITY           SKY/WX    TMP DP  RH WIND       PRES   REMARKS
ALAMOSA        FAIR      61  26  26 SW14      29.85R
DEL NORTE      FAIR      60  23  24 SW7       29.89R
LA VETA PASS   FAIR      52  23  32 MISG      30.12R
SAGUACHE       MOCLDY    59  30  33 W7        29.86S
$$

COZ035-036-038>040-250400-
...NORTHERN COLORADO FRONT RANGE...

CITY           SKY/WX    TMP DP  RH WIND       PRES   REMARKS
DENVER INTL AP FAIR      72  34  24 W7        29.61S
DMNS CITY PARK   N/A     71  27  19 W3        29.60S
AURORA         PTCLDY    71  28  20 W7        29.63S
FRONT RANGE AP PTCLDY    66  46  48 SE3       29.62F
ERIE MUNI ARPT FAIR      64  44  48 CALM      29.58F
BOULDER MUN AP FAIR      70  36  28 CALM      29.59S
CENTENNIAL     FAIR      67  29  24 SW8       29.65S
BROOMFIELD     PTCLDY    70  32  24 W6        29.63S
FORT COLLINS   FAIR      72  36  26 SW7G17    29.57S
LONGMONT       FAIR      65  44  47 CALM      29.60R
$$

COZ041-046-047-076>085-087-088-250400-
...PIKES PEAK/PALMER DIVIDE AND SOUTHERN FOOTHILLS...

CITY           SKY/WX    TMP DP  RH WIND       PRES   REMARKS
COLO. SPRINGS  FAIR      73  26  17 N6        29.70S
A. F. ACADEMY  FAIR      69  27  20 E6        29.71S
SCHRIEVER AFB  FAIR      63  39  41 N10       29.71R
CHEYENNE MTN   FAIR      68  24  19 SW12      29.70S
ELLICOTT       FAIR     N/A N/A N/A SE8       29.69S
FALCON         FAIR      62  37  39 CALM      29.76S
FORT CARSON    FAIR      74  24  15 W6        29.67R
LIMON          FAIR      58  43  57 SE9       29.66R
MONUMENT HILL  FAIR      61  32  33 SW9       29.77S
CANON CITY     NOT AVBL
WALSENBURG     FAIR      61  43  51 SW12      29.70R
TRINIDAD       FAIR      65  38  36 W12       29.68R
$$

COZ042>045-048>051-090-091-250400-
...NORTHEAST COLORADO...

CITY           SKY/WX    TMP DP  RH WIND       PRES   REMARKS
GREELEY ARPT   NOT AVBL
AKRON          FAIR      67  44  43 S14       29.56S
BURLINGTON     FAIR      62  47  57 S14       29.60S
WRAY           FAIR      66  45  45 S13       29.52F
YUMA           FAIR      64  43  45 S16       29.54S
STERLING       FAIR      59  50  72 SW7       29.49S
HOLYOKE        NOT AVBL
FORT MORGAN    FAIR      65  42  43 S3        29.55S
$$

COZ086-089-092>099-250400-
...SOUTHEAST COLORADO...

CITY           SKY/WX    TMP DP  RH WIND       PRES   REMARKS
PUEBLO         FAIR      71  36  27 NW13      29.57S
LA JUNTA       FAIR      71  43  36 SE6       29.56R
LAMAR          FAIR      63  48  58 E9        29.56R
SPRINGFIELD      N/A     61  46  57 S12       29.64R
$$




USA.gov is the U.S. government's official web portal to all federal, state and local government web resources and services.